Goldsboro, NC

1:53 PM EST on November 24, 2017 (GMT -0500)
Seymour Johnson Air Force Base

Weather History for KGSB - October, 2012

Change the Weather History Date:

Wednesday, October 17, 2012

  Actual Average Record
Temperature  
Mean Temperature 58 °F -  
Max Temperature 70 °F 71 °F 86 °F (2011)
Min Temperature 46 °F 50 °F 37 °F (2004)
Degree Days  
Heating Degree Days 7    
Growing Degree Days 8 (Base 50)    
Moisture  
Dew Point 48 °F    
Average Humidity 75    
Maximum Humidity 95    
Minimum Humidity 45    
Precipitation  
Precipitation 0.00 in - - ()
Sea Level Pressure  
Sea Level Pressure 29.97 in    
Wind  
Wind Speed 2 mph (SE)    
Max Wind Speed 7 mph    
Max Gust Speed -    
Visibility 10 miles    
Events      
Averages and records for this station are not official NWS values.
T = Trace of Precipitation, MM = Missing Value Source: NWS Daily Summary

Daily Weather History Graph

Daily Weather History Graph

Search for Another Location

Airport or City:

Trip Planner

Search our weather history database for the weather conditions in past years. The results will help you decide how hot, cold, wet, or windy it might be!

Date:

Astronomy

Oct. 17, 2012 Rise Set
Actual Time 7:20 AM EDT 6:33 PM EDT
Civil Twilight 6:54 AM EDT 6:59 PM EDT
Nautical Twilight 6:24 AM EDT 7:28 PM EDT
Astronomical Twilight 5:55 AM EDT 7:58 PM EDT
Moon 9:45 AM EDT (10/17) 8:14 PM EDT (10/17)
Length of Visible Light 12h 04m
Length of Day
11h 13m
Waxing Crescent, 7% of the Moon is Illuminated
Oct 17
Waxing Crescent
Oct 21
First Quarter
Oct 29
Full
Nov 6
Last Quarter
Nov 13
New

Hourly Weather History & Observations

Time (EDT) Temp. Dew Point Humidity Pressure Visibility Wind Dir Wind Speed Gust Speed Precip Events Conditions
12:55 AM 49.5 °F 46.9 °F 91% 29.94 in 10.0 mi Calm Calm - N/A   Clear
1:55 AM 48.9 °F 47.3 °F 94% 29.93 in 10.0 mi Calm Calm - N/A   Clear
2:55 AM 48.2 °F 46.2 °F 93% 29.93 in 10.0 mi Calm Calm - N/A   Clear
3:55 AM 46.9 °F 45.5 °F 95% 29.93 in 10.0 mi Calm Calm - N/A   Clear
4:55 AM 47.7 °F 45.9 °F 93% 29.95 in 10.0 mi Calm Calm - N/A   Clear
5:55 AM 46.8 °F 45.1 °F 94% 29.96 in 10.0 mi Calm Calm - N/A   Clear
6:55 AM 46.9 °F 45.1 °F 93% 29.97 in 10.0 mi Calm Calm - N/A   Clear
7:55 AM 48.2 °F 45.9 °F 92% 29.98 in 10.0 mi Calm Calm - N/A   Clear
8:55 AM 51.1 °F 48.4 °F 90% 30.00 in 10.0 mi Calm Calm - N/A   Clear
9:55 AM 58.6 °F 50.7 °F 75% 30.01 in 10.0 mi Calm Calm - N/A   Clear
10:55 AM 63.9 °F 51.1 °F 63% 30.01 in 10.0 mi ESE 3.5 mph - N/A   Clear
11:55 AM 66.9 °F 48.6 °F 52% 30.01 in 10.0 mi South 4.6 mph - N/A   Scattered Clouds
12:55 PM 68.0 °F 47.5 °F 48% 30.00 in 10.0 mi South 5.8 mph - N/A   Partly Cloudy
1:55 PM 69.8 °F 47.5 °F 45% 29.97 in 10.0 mi Calm Calm - N/A   Clear
2:55 PM 69.8 °F 48.0 °F 46% 29.96 in 10.0 mi South 6.9 mph - N/A   Partly Cloudy
3:55 PM 68.4 °F 47.3 °F 47% 29.95 in 10.0 mi SSE 3.5 mph - N/A   Partly Cloudy
4:55 PM 70.0 °F 48.2 °F 46% 29.94 in 10.0 mi SE 4.6 mph - N/A   Clear
5:55 PM 67.3 °F 48.2 °F 50% 29.94 in 10.0 mi SE 4.6 mph - N/A   Mostly Cloudy
6:55 PM 61.0 °F 50.4 °F 68% 29.96 in 10.0 mi SE 3.5 mph - N/A   Clear
7:55 PM 55.8 °F 49.5 °F 79% 29.97 in 10.0 mi East 4.6 mph - N/A   Clear
8:55 PM 53.2 °F 49.3 °F 86% 29.97 in 10.0 mi East 4.6 mph - N/A   Clear
9:55 PM 51.3 °F 48.0 °F 89% 29.98 in 10.0 mi ESE 5.8 mph - N/A   Clear
10:55 PM 53.6 °F 49.3 °F 85% 29.98 in 10.0 mi ESE 4.6 mph - N/A   Clear
11:55 PM 50.7 °F 48.9 °F 94% 29.96 in 10.0 mi East 3.5 mph - N/A   Clear